Meteo Giornale » Osservazioni meteo Stati Uniti (USA) » Altus-Quartz Mtn
ore: 00:26 - Osservazioni Meteo Altus-Quartz Mtn
Lat. 34° 42' N Lon. 99° 20' W Alt. 437 metri s.l.m.
29 °C
Sereno
Temp. 24 Ore
23 °C
38 °C
Sud-Est
20.3 Km/h
Dew point 13 °C
Umidità 37 %
Visibilità 10 Km
Il sole sorge alle ore 07:10
Il sole tramonta alle ore 20:03
| Data e Ora | Cielo e Fenomeni | T °C | DP °C | Um. % | Pres. hPa | Vis. km | Vento km/h | |
|---|---|---|---|---|---|---|---|---|
| Oggi h: 00:26 | Sereno | 29 | 13 | 37 | 1016 | 10 | SE 20.3 | |
| Oggi h: 00:19 | Sereno | 30 | 13 | 35 | 1015 | 10 | SE 22.2 | |
| Oggi h: 00:02 | Sereno | 30 | 13 | 35 | 1015 | 10 | SE 22.2 | |
| Ieri h: 23:31 | Sereno | 30 | 13 | 35 | 1015 | 10 | SE 22.2 | |
| Ieri h: 23:06 | Sereno | 31 | 12 | 31 | 1015 | 10 | SE 24 | |
| Ieri h: 21:55 | Sereno | 32 | 12 | 29 | 1014 | 10 | SE 16.7 | |
| Ieri h: 21:07 | Sereno | 32 | 13 | 31 | 1014 | 10 | SE 20.3 | |
| Ieri h: 20:26 | Sereno | 33 | 13 | 29 | 1013 | 10 | SE 16.7 | |
| Ieri h: 19:51 | Sereno | 35 | 13 | 26 | 1013 | 10 | SE 24 | |
| Ieri h: 19:35 | Sereno | 36 | 13 | 25 | 1013 | 10 | S/SE 24 | |
| Ieri h: 19:15 | Sereno | 36 | 13 | 25 | 1013 | 10 | SE 24 | |
| Ieri h: 18:55 | Sereno | 37 | 13 | 23 | 1013 | 10 | SE 22.2 | |
| Ieri h: 18:35 | Sereno | 37 | 13 | 23 | 1013 | 10 | SE 27.8 | |
| Ieri h: 18:15 | Sereno | 37 | 13 | 23 | 1013 | 10 | SE 22.2 | |
| Ieri h: 17:55 | Sereno | 38 | 13 | 22 | 1013 | 10 | S 20.3 | |
| Ieri h: 17:35 | Nuvoloso | 38 | 14 | 24 | 1013 | 10 | S/SE 24 | |
| Ieri h: 17:15 | Molto Nuvoloso | 38 | 14 | 24 | 1013 | 10 | S 25.9 | |
| Ieri h: 16:55 | Molto Nuvoloso | 38 | 13 | 22 | 1013 | 10 | S 20.3 | |
| Ieri h: 16:35 | Sereno | 37 | 13 | 23 | 1013 | 10 | N 9.3 | |
| Ieri h: 16:15 | Nuvoloso | 38 | 14 | 24 | 1014 | 10 | SE 16.7 | |
| Ieri h: 15:55 | Nuvoloso | 38 | 14 | 24 | 1014 | 10 | S 16.7 | |
| Ieri h: 15:35 | Poco Nuvoloso | 38 | 14 | 24 | 1014 | 10 | S/SE 20.3 | |
| Ieri h: 15:15 | Sereno | 37 | 14 | 25 | 1014 | 10 | SE 20.3 | |
| Ieri h: 14:55 | Poco Nuvoloso | 37 | 15 | 27 | 1015 | 10 | S/SE 13 | |
| Ieri h: 14:35 | Molto Nuvoloso | 38 | 16 | 27 | 1015 | 10 | SE 22.2 | |
| Ieri h: 14:15 | Nuvoloso | 37 | 16 | 28 | 1015 | 14 | S/SE 22.2 | |
| Ieri h: 13:55 | Poco Nuvoloso | 37 | 16 | 28 | 1015 | 10 | SE 13 | |
| Ieri h: 13:35 | Poco Nuvoloso | 37 | 15 | 27 | 1016 | 10 | S 13 | |
| Ieri h: 13:15 | Sereno | 36 | 16 | 30 | 1016 | 10 | S/SE 18.5 | |
| Ieri h: 12:55 | Sereno | 36 | 17 | 32 | 1016 | 10 | S 14.8 | |
| Ieri h: 12:35 | Sereno | 36 | 17 | 32 | 1016 | 10 | SO 16.7 | |
| Ieri h: 12:15 | Sereno | 35 | 18 | 36 | 1017 | 10 | S 18.5 | |
| Ieri h: 11:55 | Sereno | 35 | 18 | 36 | 1017 | 10 | S 20.3 | |
| Ieri h: 11:35 | Sereno | 34 | 18 | 38 | 1017 | 10 | S 16.7 | |
| Ieri h: 11:15 | Sereno | 34 | 18 | 38 | 1017 | 10 | S 18.5 | |
| Ieri h: 10:55 | Sereno | 33 | 18 | 41 | 1017 | 10 | S/SO 16.7 | |
| Ieri h: 10:35 | Poco Nuvoloso | 32 | 18 | 43 | 1017 | 10 | S 20.3 | |
| Ieri h: 10:15 | Nuvoloso | 31 | 18 | 45 | 1017 | 10 | S 22.2 | |
| Ieri h: 09:55 | Nuvoloso | 31 | 17 | 43 | 1017 | 10 | S 22.2 | |
| Ieri h: 09:35 | Nuvoloso | 30 | 17 | 45 | 1017 | 10 | S 22.2 | |
| Ieri h: 09:15 | Poco Nuvoloso | 29 | 17 | 48 | 1017 | 10 | S 14.8 | |
| Ieri h: 08:55 | Sereno | 28 | 17 | 51 | 1017 | 10 | S/SE 16.7 | |
| Ieri h: 08:34 | Sereno | 27 | 16 | 50 | 1016 | 10 | S/SE 14.8 | |
| Ieri h: 08:09 | Sereno | 25 | 16 | 57 | 1016 | 10 | SE 11.1 | |
| Ieri h: 07:51 | Sereno | 24 | 15 | 57 | 1016 | 10 | E/SE 11.1 | |
| Ieri h: 07:27 | Sereno | 23 | 15 | 60 | 1015 | 10 | E/SE 11.1 | |
| Ieri h: 07:06 | Sereno | 23 | 15 | 60 | 1015 | 10 | E/SE 11.1 | |
| Ieri h: 06:34 | Sereno | 23 | 15 | 60 | 1015 | 10 | E/SE 13 | |
| Ieri h: 06:15 | Sereno | 23 | 15 | 60 | 1015 | 10 | E/SE 13 | |
| Ieri h: 05:55 | Sereno | 24 | 15 | 57 | 1015 | 10 | E/SE 11.1 | |
| Ieri h: 05:35 | Sereno | 24 | 14 | 53 | 1015 | 10 | E/SE 11.1 | |
| Ieri h: 05:07 | Sereno | 24 | 14 | 53 | 1015 | 10 | E/SE 11.1 | |
| Ieri h: 04:55 | Sereno | 24 | 14 | 53 | 1014 | 10 | E/SE 13 | |
| Ieri h: 04:35 | Sereno | 24 | 14 | 53 | 1014 | 10 | E 11.1 | |
| Ieri h: 04:15 | Sereno | 25 | 14 | 50 | 1014 | 10 | E/SE 11.1 | |
| Ieri h: 03:55 | Sereno | 25 | 14 | 50 | 1014 | 10 | E/SE 11.1 | |
| Ieri h: 03:35 | Sereno | 26 | 14 | 47 | 1014 | 10 | SE 13 | |
| Ieri h: 03:15 | Sereno | 27 | 14 | 44 | 1014 | 10 | S/SE 18.5 | |
| Ieri h: 02:55 | Sereno | 28 | 13 | 39 | 1014 | 10 | S/SE 18.5 | |
| Ieri h: 02:35 | Sereno | 28 | 13 | 39 | 1014 | 10 | S/SE 20.3 | |
| Ieri h: 02:15 | Sereno | 28 | 13 | 39 | 1014 | 10 | S/SE 18.5 | |
| Ieri h: 01:55 | Sereno | 28 | 13 | 39 | 1014 | 10 | S/SE 20.3 | |
| Ieri h: 01:35 | Sereno | 29 | 12 | 35 | 1014 | 10 | S/SE 20.3 | |
| Ieri h: 01:15 | Sereno | 29 | 12 | 35 | 1014 | 10 | S/SE 22.2 | |
| Ieri h: 00:55 | Sereno | 29 | 12 | 35 | 1014 | 10 | S/SE 24 | |
| Ieri h: 00:35 | Sereno | 30 | 12 | 33 | 1013 | 10 | S/SE 25.9 | |



